This demonstration page uses our WeatherBlox Daily Observations layout. Learn more.

Left ArrowRight Arrow

44.89941, -97.11507

Hourly Observations for June 21, 2016

Temp ( °F °C ) Dew Point ( °F °C ) Humidity (%) Winds ( mph kmh ) Pressure ( in mb ) Visibility ( mi km ) Precip ( " mm )
12:53 am 00:53 Clear 59 15 48 8.9 67 67 S 3 6 30.13 1020 10 16 0.00 0.00
1:53 am 01:53 Clear 58 14.4 49 9.4 72 72 S 5 7 30.12 1020 10 16 0.00 0.00
2:53 am 02:53 Clear 55 12.8 47 8.3 74 74 S 5 7 30.11 1020 10 16 0.00 0.00
3:53 am 03:53 Clear 55 12.8 48 8.9 77 77 Calm 30.11 1020 10 16 0.00 0.00
4:53 am 04:53 Clear 54 12.2 47 8.3 77 77 Calm 30.09 1019 10 16 0.00 0.00
5:53 am 05:53 Sunny 54 12.2 47 8.3 77 77 Calm 30.10 1019 10 16 0.00 0.00
6:53 am 06:53 Sunny 57 13.9 49 9.4 74 74 Calm 30.09 1019 10 16 0.00 0.00
7:53 am 07:53 Sunny 63 17.2 52 11.1 68 68 S 5 7 30.09 1019 10 16 0.00 0.00
8:53 am 08:53 Sunny 69 20.6 54 12.2 59 59 S 5 7 30.08 1019 10 16 0.00 0.00
9:53 am 09:53 Sunny 74 23.3 47 8.3 38 38 SSW 5 7 30.06 1018 10 16 0.00 0.00
10:53 am 10:53 Sunny 77 25 42 5.6 29 29 S 3 6 30.03 1017 10 16 0.00 0.00
11:53 am 11:53 Sunny 80 26.7 45 7.2 29 29 SSW 9 15 30.03 1017 10 16 0.00 0.00
12:53 pm 12:53 Sunny 81 27.2 45 7.2 28 28 SSW 7 11 30.01 1016 10 16 0.00 0.00
1:53 pm 13:53 Sunny 82 27.8 46 7.8 28 28 SSW 5 7 29.98 1015 10 16 0.00 0.00
2:53 pm 14:53 Sunny 83 28.3 49 9.4 31 31 S 8 13 29.96 1015 10 16 0.00 0.00
3:53 pm 15:53 Sunny 84 28.9 50 10 31 31 VRB 7 11 29.93 1013 10 16 0.00 0.00
4:53 pm 16:53 Sunny 84 28.9 50 10 31 31 S 9 15 29.90 1013 10 16 0.00 0.00
5:53 pm 17:53 Sunny 84 28.9 50 10 31 31 SSE 8 13 29.88 1012 10 16 0.00 0.00
6:53 pm 18:53 Sunny 83 28.3 50 10 32 32 SSE 10 17 29.85 1011 10 16 0.00 0.00
7:53 pm 19:53 Sunny 81 27.2 51 10.6 35 35 SE 8 13 29.83 1010 10 16 0.00 0.00
8:53 pm 20:53 Mostly Sunny 79 26.1 52 11.1 39 39 ESE 8 13 29.81 1010 10 16 0.00 0.00
9:53 pm 21:53 Cloudy 77 25 53 11.7 43 43 ESE 9 15 29.81 1010 10 16 0.00 0.00
10:53 pm 22:53 Partly Cloudy 76 24.4 53 11.7 45 45 ESE 10 17 29.83 1010 10 16 0.00 0.00
11:14 pm 23:14 Partly Cloudy with Nearby Thunderstorms 76 24.4 53 11.7 45 45 ESE 7 11 29.85 1011 10 16 0.00 0.00
11:29 pm 23:29 Mostly Cloudy with Light Rain 75 23.9 54 12.2 48 48 E 12 19 29.83 1010 10 16 0.00 0.03
11:53 pm 23:53 Mostly Clear 74 23.3 53 11.7 48 48 ESE 10 17 29.75 1007 10 16 0.00 0.03

Powered by AerisWeather